"2016-06-30 00:00:00",1766809,1.274,184.6,6.896,0.074,24.13,110.3885,25.89,26.86,19.45,0,111.4,13.01,26.74,146.6
"2016-06-30 00:00:30",1766810,1.279,184.3,2.921,0.111,24.16,110.3889,25.89,26.87,19.43,0,111.4,13.01,26.74,146.3
"2016-06-30 00:01:00",1766811,1.246,194.7,5.819,0.153,24.13,110.3864,25.89,26.87,19.46,0,111.4,13.01,26.73,156.7
"2016-06-30 00:01:30",1766812,1.314,199.8,2.616,0.127,24.1,110.3841,25.88,26.88,19.6,0,111.4,13.01,26.72,161.8
"2016-06-30 00:02:00",1766813,1.047,192.6,2.804,0.051,24.18,110.3833,25.88,26.87,19.47,0,111.4,13.01,26.72,154.6
"2016-06-30 00:02:30",1766814,1.075,195.7,2.414,0.06,24.37,110.3775,25.86,26.88,19.22,0,111.4,13.01,26.71,157.7
"2016-06-30 00:03:00",1766815,1.111,198.1,3.121,0.058,24.48,110.3744,25.86,26.87,19.03,0,111.4,13.01,26.70,160.1
"2016-06-30 00:03:30",1766816,1.162,201.3,2.577,0.045,24.58,110.3696,25.84,26.88,18.99,0,111.4,13.01,26.69,163.3
"2016-06-30 00:04:00",1766817,1.257,198.6,4.748,0.09,24.41,110.372,25.85,26.87,19,0,111.4,13.01,26.69,160.6
"2016-06-30 00:04:30",1766818,1.39,193.5,1.077,0.037,24.06,110.3702,25.85,26.87,19.04,0,111.4,13.01,26.69,155.5
"2016-06-30 00:05:00",1766819,1.386,196.3,1.765,0.04,24.17,110.373,25.85,26.87,19.13,0,111.4,13.01,26.70,158.3
"2016-06-30 00:05:30",1766820,1.43,205.5,6.001,0.117,24.13,110.373,25.85,26.86,19.41,0,111.4,13.01,26.70,167.5
"2016-06-30 00:06:00",1766821,1.15,206.8,2.772,0.079,24.27,110.3718,25.85,26.87,20.09,0,111.4,13.01,26.69,168.8
"2016-06-30 00:06:30",1766822,1.435,211.1,5.993,0.116,24.24,110.3721,25.85,26.85,19.96,0,111.4,13.01,26.69,173.1
"2016-06-30 00:07:00",1766823,1.489,220,1.968,0.098,24.23,110.3755,25.86,26.84,19.95,0,111.4,13.01,26.70,182.0
"2016-06-30 00:07:30",1766824,1.616,216.8,3.209,0.226,24.26,110.3665,25.84,26.83,20.7,0,111.3,13.02,26.68,178.8
"2016-06-30 00:08:00",1766825,1.495,205.4,3.784,0.174,24.31,110.3599,25.82,26.82,20.65,0,111.3,13.01,26.66,167.4
"2016-06-30 00:08:30",1766826,1.662,204.8,5.911,0.109,24.41,110.3431,25.78,26.8,20.22,0,111.3,13.02,26.62,166.8
"2016-06-30 00:09:00",1766827,1.751,214.3,4.41,0.083,24.34,110.3424,25.77,26.78,20,0,111.3,13.01,26.62,176.3
"2016-06-30 00:09:30",1766828,1.79,220.6,5.099,0.073,24.3,110.3434,25.78,26.77,20.42,0,111.3,13.01,26.62,182.6
"2016-06-30 00:10:00",1766829,2.015,224.2,4.266,0.161,24.36,110.3434,25.78,26.76,20.64,0,111.3,13.01,26.62,186.2
"2016-06-30 00:10:30",1766830,1.761,231.5,3.323,0.134,24.34,110.3338,25.75,26.75,21.09,0,111.3,13.02,26.59,193.5
"2016-06-30 00:11:00",1766831,1.551,216.5,7.144,0.168,24.39,110.3099,25.69,26.74,21.12,0,111.3,13.01,26.53,178.5
"2016-06-30 00:11:30",1766832,1.997,191.4,6.358,0.16,24.46,110.31,25.69,26.71,20.77,0,111.3,13.01,26.53,153.4
"2016-06-30 00:12:00",1766833,2.135,188.7,5.153,0.092,24.39,110.31,25.69,26.7,20.51,0,111.3,13.02,26.53,150.7
"2016-06-30 00:12:30",1766834,1.959,184.7,8.19,0.225,24.43,110.2926,25.65,26.67,20.41,0,111.3,13.02,26.49,146.7
"2016-06-30 00:13:00",1766835,2.358,190,7.386,0.115,24.44,110.2766,25.61,26.64,20.61,0,111.3,13.02,26.45,152.0
"2016-06-30 00:13:30",1766836,2.267,187.6,5.66,0.212,24.41,110.2763,25.6,26.64,20.92,0,111.3,13.02,26.45,149.6
"2016-06-30 00:14:00",1766837,2.078,186.9,4.519,0.153,24.48,110.2749,25.6,26.6,21.27,0,111.3,13.02,26.44,148.9
"2016-06-30 00:14:30",1766838,2.304,170.6,3.686,0.281,24.49,110.2541,25.55,26.58,20.89,0,111.3,13.02,26.39,132.6
"2016-06-30 00:15:00",1766839,2.458,177,3.08,0.145,24.49,110.2426,25.52,26.56,21.2,0,111.3,13.02,26.36,139.0
"2016-06-30 00:15:30",1766840,2.564,165.9,3.966,0.096,24.47,110.2423,25.52,26.55,21.44,0,111.3,13.02,26.36,127.9
"2016-06-30 00:16:00",1766841,2.752,164.9,0.941,0.094,24.44,110.2182,25.46,26.53,22.05,0,111.3,13.01,26.30,126.9
"2016-06-30 00:16:30",1766842,2.67,163.5,3.773,0.137,24.45,110.2089,25.43,26.5,22.13,0,111.3,13.01,26.27,125.5
"2016-06-30 00:17:00",1766843,2.643,166.2,1.854,0.123,24.48,110.1819,25.36,26.47,21.89,0,111.3,13.01,26.20,128.2
"2016-06-30 00:17:30",1766844,3.158,165.1,1.531,0.199,24.5,110.1308,25.23,26.41,22.3,0,111.3,13.01,26.07,127.1
"2016-06-30 00:18:00",1766845,3.305,159.6,2.455,0.108,24.44,110.0727,25.08,26.31,24.22,0,111.3,13.01,25.92,121.6
"2016-06-30 00:18:30",1766846,3.369,151,6.805,0.145,24.34,110.0073,24.91,26.2,25.17,0,111.3,13.01,25.75,113.0
"2016-06-30 00:19:00",1766847,5.708,142.9,6.073,0.977,23.73,109.9514,24.77,26.07,27.28,0,111.3,13.01,25.61,104.9
"2016-06-30 00:19:30",1766848,7.26,136.2,6.419,0.694,23.79,109.925,24.7,25.98,27.32,0,111.3,13.01,25.54,98.2
"2016-06-30 00:20:00",1766849,7.43,141,1.679,0.36,23.96,109.9057,24.65,25.9,27.29,0,111.3,13.01,25.49,103.0
"2016-06-30 00:20:30",1766850,7.387,147.5,1.316,0.122,23.97,109.8784,24.58,25.84,27.33,0,111.3,13.01,25.42,109.5
"2016-06-30 00:21:00",1766851,7.231,146.4,1.725,0.28,24.11,109.8692,24.56,25.8,27.2,0,111.3,13.01,25.40,108.4
"2016-06-30 00:21:30",1766852,7.129,147.8,2.883,0.279,24.13,109.8414,24.49,25.75,27.17,0,111.3,13.02,25.32,109.8
"2016-06-30 00:22:00",1766853,6.655,145.7,1.472,0.19,24.2,109.8315,24.46,25.7,27.03,0,111.3,13.02,25.30,107.7
"2016-06-30 00:22:30",1766854,7.02,145.9,1.659,0.16,24.22,109.8051,24.39,25.66,27.06,0,111.3,13.02,25.23,107.9
"2016-06-30 00:23:00",1766855,6.664,143.3,1.909,0.295,24.26,109.7872,24.35,25.62,26.87,0,111.3,13.02,25.18,105.3
"2016-06-30 00:23:30",1766856,6.866,141.3,2.574,0.33,24.32,109.7709,24.31,25.57,26.65,0,111.3,13.02,25.14,103.3
"2016-06-30 00:24:00",1766857,6.677,142.6,2.903,0.254,24.31,109.7518,24.26,25.53,26.58,0,111.3,13.02,25.09,104.6
"2016-06-30 00:24:30",1766858,7.135,144.4,2.199,0.364,24.31,109.7372,24.22,25.49,26.56,0,111.3,13.02,25.06,106.4
"2016-06-30 00:25:00",1766859,6.714,150.5,4.452,0.261,24.38,109.7131,24.16,25.43,26.56,0,111.3,13.02,24.99,112.5
"2016-06-30 00:25:30",1766860,5.689,148.3,2.159,0.442,24.42,109.7078,24.14,25.39,25.96,0,111.3,13.02,24.98,110.3
"2016-06-30 00:26:00",1766861,5.379,145.7,2.469,0.379,24.36,109.6979,24.12,25.35,25.67,0,111.2,13.02,24.95,107.7
"2016-06-30 00:26:30",1766862,4.893,152.8,3.945,0.284,24.3,109.6907,24.1,25.31,25.78,0,111.2,13.02,24.94,114.8
"2016-06-30 00:27:00",1766863,4.731,149.1,4.938,0.267,24.3,109.694,24.11,25.27,26.05,0,111.2,13.02,24.94,111.1
"2016-06-30 00:27:30",1766864,5.337,148.9,2.429,0.197,24.06,109.6732,24.06,25.23,26.87,0,111.2,13.02,24.89,110.9
"2016-06-30 00:28:00",1766865,5.211,152,4.692,0.201,24.19,109.6644,24.03,25.21,27.13,0,111.2,13.03,24.87,114.0
"2016-06-30 00:28:30",1766866,4.52,160,5.262,0.53,24.21,109.6657,24.04,25.16,26.76,0,111.2,13.03,24.87,122.0
"2016-06-30 00:29:00",1766867,5.327,151.4,3.214,0.192,24.06,109.6585,24.02,25.15,27.4,0,111.2,13.03,24.85,113.4
"2016-06-30 00:29:30",1766868,4.906,145.8,2.617,0.157,24.05,109.6416,23.97,25.13,27.81,0,111.2,13.03,24.81,107.8
"2016-06-30 00:30:00",1766869,4.806,151.9,3.561,0.124,24.04,109.6387,23.97,25.1,27.91,0,111.2,13.03,24.80,113.9
"2016-06-30 00:30:30",1766870,4.438,146.7,3.225,0.161,24,109.6387,23.97,25.08,27.91,0,111.2,13.03,24.80,108.7
"2016-06-30 00:31:00",1766871,4.639,150.9,3.469,0.15,24.13,109.6385,23.97,25.07,27.69,0,111.2,13.03,24.80,112.9
"2016-06-30 00:31:30",1766872,4.888,145.7,2.197,0.201,24.1,109.6242,23.93,25.03,27.74,0,111.2,13.03,24.76,107.7
"2016-06-30 00:32:00",1766873,4.939,147,1.523,0.198,24.08,109.611,23.9,25.02,27.68,0,111.2,13.03,24.73,109.0
"2016-06-30 00:32:30",1766874,5.024,146.4,1.792,0.083,23.98,109.6062,23.88,25,28.15,0,111.2,13.03,24.72,108.4
"2016-06-30 00:33:00",1766875,5.001,146.6,1.017,0.085,24.03,109.6057,23.88,25,28.32,0,111.2,13.03,24.72,108.6
"2016-06-30 00:33:30",1766876,5.045,149.9,1.342,0.183,24.07,109.6057,23.88,24.97,28.37,0,111.2,13.03,24.72,111.9
"2016-06-30 00:34:00",1766877,5.075,149.8,0.687,0.14,24.04,109.604,23.88,24.96,28.34,0,111.2,13.03,24.71,111.8
"2016-06-30 00:34:30",1766878,5.595,148.5,2.227,0.195,23.93,109.5978,23.86,24.93,28.51,0,111.2,13.03,24.70,110.5
"2016-06-30 00:35:00",1766879,5.386,150.5,0.834,0.057,24.08,109.5871,23.83,24.93,28.69,0,111.2,13.03,24.67,112.5
"2016-06-30 00:35:30",1766880,5.274,149.2,1.5,0.109,24.02,109.5734,23.8,24.92,28.84,0,111.2,13.03,24.63,111.2
"2016-06-30 00:36:00",1766881,5.596,147.6,1.904,0.16,23.97,109.572,23.79,24.9,28.87,0,111.2,13.03,24.63,109.6
"2016-06-30 00:36:30",1766882,5.801,144.1,1.178,0.154,23.93,109.572,23.79,24.89,28.89,0,111.2,13.03,24.63,106.1
"2016-06-30 00:37:00",1766883,5.871,145.5,1.353,0.108,23.94,109.5669,23.78,24.87,28.9,0,111.2,13.03,24.62,107.5
"2016-06-30 00:37:30",1766884,5.95,144.2,1.359,0.073,23.89,109.545,23.73,24.85,28.96,0,111.2,13.03,24.56,106.2
"2016-06-30 00:38:00",1766885,5.917,144.5,1.346,0.105,23.94,109.5382,23.71,24.83,29.02,0,111.2,13.03,24.54,106.5
"2016-06-30 00:38:30",1766886,6.073,144.4,2.061,0.209,23.9,109.5382,23.71,24.82,29,0,111.2,13.03,24.54,106.4
"2016-06-30 00:39:00",1766887,6.201,144.1,1.094,0.129,23.87,109.5346,23.7,24.79,28.84,0,111.2,13.03,24.53,106.1
"2016-06-30 00:39:30",1766888,6.377,144.3,0.587,0.093,23.99,109.5197,23.66,24.78,28.81,0,111.2,13.03,24.50,106.3
"2016-06-30 00:40:00",1766889,6.212,145.3,0.968,0.171,23.96,109.5049,23.62,24.76,28.84,0,111.2,13.03,24.46,107.3
"2016-06-30 00:40:30",1766890,6.204,146.3,1.4,0.207,23.98,109.5049,23.62,24.75,28.93,0,111.2,13.04,24.46,108.3
"2016-06-30 00:41:00",1766891,6.418,145.5,1.41,0.149,23.98,109.4984,23.61,24.72,28.93,0,111.2,13.04,24.44,107.5
"2016-06-30 00:41:30",1766892,6.58,146.6,1.477,0.115,24.02,109.4794,23.56,24.69,28.93,0,111.2,13.04,24.39,108.6
"2016-06-30 00:42:00",1766893,6.445,147.5,2.055,0.155,24.05,109.477,23.55,24.68,28.95,0,111.2,13.04,24.39,109.5
"2016-06-30 00:42:30",1766894,6.566,148.8,1.073,0.14,24.01,109.4798,23.56,24.66,29.03,0,111.2,13.04,24.39,110.8
"2016-06-30 00:43:00",1766895,6.787,150.6,2.05,0.137,24.15,109.4723,23.54,24.64,29.1,0,111.2,13.04,24.37,112.6
"2016-06-30 00:43:30",1766896,6.392,154,1.507,0.125,24.07,109.4611,23.51,24.63,29.22,0,111.2,13.04,24.34,116.0
"2016-06-30 00:44:00",1766897,6.67,154.6,3.155,0.19,24.19,109.4587,23.5,24.61,29.29,0,111.2,13.04,24.34,116.6
"2016-06-30 00:44:30",1766898,6.616,152.8,2.761,0.124,24.16,109.4611,23.51,24.58,29.19,0,111.2,13.04,24.34,114.8
"2016-06-30 00:45:00",1766899,7.193,151.6,2.15,0.156,24.05,109.4633,23.52,24.57,29.23,0,111.2,13.04,24.35,113.6
"2016-06-30 00:45:30",1766900,7.42,149.9,0.591,0.118,24.04,109.4566,23.5,24.56,29.11,0,111.2,13.04,24.33,111.9
"2016-06-30 00:46:00",1766901,8.29,152.4,1.08,0.258,23.97,109.4455,23.47,24.54,29.23,0,111.2,13.04,24.30,114.4
"2016-06-30 00:46:30",1766902,8.58,153.2,0.32,0.052,24.05,109.4359,23.45,24.53,29.35,0,111.2,13.04,24.28,115.2
"2016-06-30 00:47:00",1766903,8.74,158.3,2.585,0.221,23.78,109.4372,23.45,24.5,30.24,0,111.2,13.04,24.28,120.3
"2016-06-30 00:47:30",1766904,9.16,161,1.14,0.194,23.79,109.4394,23.45,24.51,31.15,0,111.2,13.04,24.29,123.0
"2016-06-30 00:48:00",1766905,9.57,158.6,1.109,0.13,23.81,109.4181,23.4,24.48,31.4,0,111.2,13.04,24.23,120.6
"2016-06-30 00:48:30",1766906,9.5,159.1,2.418,0.13,23.87,109.4063,23.37,24.45,31.62,0,111.2,13.04,24.20,121.1
"2016-06-30 00:49:00",1766907,9.49,158.5,1.369,0.125,23.86,109.39,23.33,24.43,31.97,0,111.2,13.04,24.16,120.5
"2016-06-30 00:49:30",1766908,9.9,158.1,1.358,0.112,23.88,109.3729,23.28,24.4,32.16,0,111.2,13.04,24.12,120.1
"2016-06-30 00:50:00",1766909,10.01,159,1.159,0.127,23.95,109.3588,23.25,24.37,32.27,0,111.2,13.04,24.08,121.0
"2016-06-30 00:50:30",1766910,9.74,158.4,0.786,0.113,23.9,109.3392,23.2,24.32,32.31,0,111.1,13.04,24.03,120.4
"2016-06-30 00:51:00",1766911,9.82,158.8,0.777,0.143,23.99,109.3147,23.13,24.29,32.06,0,111.2,13.03,23.97,120.8
"2016-06-30 00:51:30",1766912,9.97,157.5,0.65,0.167,24,109.3055,23.11,24.25,31.98,0,111.2,13.03,23.94,119.5
"2016-06-30 00:52:00",1766913,10.09,157.4,1.088,0.141,24.01,109.2864,23.06,24.21,31.97,0,111.1,13.03,23.89,119.4
"2016-06-30 00:52:30",1766914,9.79,155.5,0.587,0.117,24.04,109.2717,23.02,24.18,31.78,0,111.1,13.03,23.86,117.5
"2016-06-30 00:53:00",1766915,9.5,154.4,0.785,0.092,24.08,109.2717,23.02,24.13,31.74,0,111.1,13.03,23.86,116.4
"2016-06-30 00:53:30",1766916,9.78,154.5,0.868,0.144,23.99,109.256,22.98,24.1,31.9,0,111.1,13.03,23.82,116.5
"2016-06-30 00:54:00",1766917,9.44,154.1,1.069,0.218,24.03,109.2406,22.94,24.09,32.21,0,111.1,13.03,23.78,116.1
"2016-06-30 00:54:30",1766918,9.19,154.5,1.059,0.23,24,109.238,22.94,24.05,32.21,0,111.1,13.03,23.77,116.5
"2016-06-30 00:55:00",1766919,9.13,154.5,1.873,0.334,23.95,109.238,22.94,24.03,32.47,0,111.1,13.03,23.77,116.5
"2016-06-30 00:55:30",1766920,9.4,153.3,1.628,0.297,24.02,109.2333,22.93,24.01,32.31,0,111.1,13.04,23.76,115.3
"2016-06-30 00:56:00",1766921,9.47,155.4,0.809,0.303,24,109.2153,22.88,23.99,31.99,0,111.1,13.04,23.71,117.4
"2016-06-30 00:56:30",1766922,9.37,154.4,1.374,0.158,24,109.2058,22.85,23.98,32.25,0,111.1,13.04,23.69,116.4
"2016-06-30 00:57:00",1766923,9.22,153.2,1.54,0.162,24.02,109.2052,22.85,23.97,32.07,0,111.1,13.04,23.68,115.2
"2016-06-30 00:57:30",1766924,9.59,154.6,1.251,0.244,24.04,109.2055,22.85,23.94,31.93,0,111.1,13.04,23.69,116.6
"2016-06-30 00:58:00",1766925,9.94,154.6,0.57,0.112,24.06,109.2068,22.86,23.92,31.66,0,111.1,13.04,23.69,116.6
"2016-06-30 00:58:30",1766926,9.49,150.8,1.351,0.25,24.02,109.2057,22.85,23.91,32.3,0,111.1,13.05,23.69,112.8
"2016-06-30 00:59:00",1766927,9.76,151.6,1.075,0.197,24.01,109.1987,22.84,23.9,32.68,0,111.1,13.05,23.67,113.6
"2016-06-30 00:59:30",1766928,9.2,150.9,1.194,0.282,23.98,109.1912,22.82,23.89,33.07,0,111.1,13.05,23.65,112.9
"2016-06-30 01:00:00",1766929,9.63,152.7,1.744,0.327,24.08,109.1835,22.8,23.86,32.45,0,111.1,13.05,23.63,114.7
"2016-06-30 01:00:30",1766930,9.55,152.1,2.273,0.537,24,109.1887,22.81,23.86,32.55,0,111.1,13.04,23.64,114.1
"2016-06-30 01:01:00",1766931,9,151.7,1.754,0.274,23.94,109.1912,22.82,23.84,33.93,0,111.1,13.05,23.65,113.7
"2016-06-30 01:01:30",1766932,9.76,152.4,1.631,0.235,24.1,109.1948,22.83,23.84,32.62,0,111.1,13.05,23.66,114.4
"2016-06-30 01:02:00",1766933,10.03,151.7,1.461,0.238,24,109.1964,22.83,23.83,32.73,0,111.1,13.05,23.66,113.7
"2016-06-30 01:02:30",1766934,9.98,151.2,1.057,0.24,24.11,109.1942,22.82,23.82,32.22,0,111.1,13.05,23.66,113.2
"2016-06-30 01:03:00",1766935,9.86,151.2,1.445,0.309,23.97,109.185,22.8,23.81,32.3,0,111.1,13.05,23.63,113.2
"2016-06-30 01:03:30",1766936,9.72,149.7,1.9,0.274,23.97,109.1778,22.78,23.8,33.1,0,111.1,13.04,23.61,111.7
"2016-06-30 01:04:00",1766937,9.75,148.4,1.282,0.114,23.93,109.1758,22.78,23.78,32.46,0,111.1,13.05,23.61,110.4
"2016-06-30 01:04:30",1766938,9.68,151.1,3.983,0.196,23.89,109.1743,22.77,23.78,33.6,0,111.1,13.05,23.61,113.1
"2016-06-30 01:05:00",1766939,9.43,149.7,1.76,0.538,23.88,109.1715,22.77,23.79,33.49,0,111.1,13.05,23.60,111.7
"2016-06-30 01:05:30",1766940,9.6,151.1,2.228,0.352,23.82,109.1731,22.77,23.76,33.22,0,111.1,13.05,23.60,113.1
"2016-06-30 01:06:00",1766941,9.08,150.7,2.681,0.548,23.81,109.1737,22.77,23.75,33.81,0,111.1,13.05,23.60,112.7
"2016-06-30 01:06:30",1766942,8.86,146.1,2.365,0.38,23.78,109.1723,22.77,23.73,33.68,0,111.1,13.05,23.60,108.1
"2016-06-30 01:07:00",1766943,8.97,144.7,0.626,0.133,23.92,109.1557,22.73,23.74,33.17,0,111.1,13.05,23.56,106.7
"2016-06-30 01:07:30",1766944,8.73,144.4,0.634,0.158,24,109.1411,22.69,23.72,33.01,0,111.1,13.05,23.52,106.4
"2016-06-30 01:08:00",1766945,8.83,143.7,1.87,0.315,24.11,109.14,22.69,23.71,32.43,0,111.1,13.05,23.52,105.7
"2016-06-30 01:08:30",1766946,8.43,141.2,1.949,0.134,23.95,109.14,22.69,23.7,32.7,0,111.1,13.04,23.52,103.2
"2016-06-30 01:09:00",1766947,8.79,143.5,1.062,0.196,23.92,109.14,22.69,23.68,32.63,0,111.1,13.04,23.52,105.5
"2016-06-30 01:09:30",1766948,8.7,143.1,1.475,0.165,23.83,109.1383,22.68,23.65,32.37,0,111.1,13.04,23.51,105.1
"2016-06-30 01:10:00",1766949,8.82,147.2,2.57,0.136,23.85,109.1327,22.67,23.67,32.03,0,111.1,13.04,23.50,109.2
"2016-06-30 01:10:30",1766950,8.89,149,2.098,0.194,23.86,109.1267,22.65,23.65,31.95,0,111.1,13.04,23.48,111.0
"2016-06-30 01:11:00",1766951,8.58,157.4,2.218,0.127,23.79,109.111,22.61,23.65,32.34,0,111.1,13.04,23.44,119.4
"2016-06-30 01:11:30",1766952,8.49,158.1,1.471,0.113,23.81,109.1062,22.6,23.63,32.6,0,111.1,13.04,23.43,120.1
"2016-06-30 01:12:00",1766953,8.41,157.5,1.253,0.136,23.81,109.1062,22.6,23.61,32.5,0,111.1,13.04,23.43,119.5
"2016-06-30 01:12:30",1766954,8.43,154.3,1.981,0.134,23.89,109.1062,22.6,23.61,32.48,0,111.1,13.04,23.43,116.3
"2016-06-30 01:13:00",1766955,8,152.9,1.463,0.164,23.91,109.1034,22.59,23.61,32.15,0,111.1,13.05,23.42,114.9
"2016-06-30 01:13:30",1766956,8.34,152.7,1.519,0.141,24.02,109.0905,22.56,23.59,31.85,0,111.1,13.05,23.39,114.7
"2016-06-30 01:14:00",1766957,8.25,150.3,1.384,0.183,24.05,109.0807,22.53,23.59,31.73,0,111.1,13.05,23.36,112.3
"2016-06-30 01:14:30",1766958,8.2,152.2,1.987,0.115,24.03,109.0748,22.52,23.58,31.69,0,111.1,13.05,23.35,114.2
"2016-06-30 01:15:00",1766959,8.21,151.2,1.596,0.159,23.99,109.0736,22.52,23.57,31.65,0,111.1,13.05,23.35,113.2
"2016-06-30 01:15:30",1766960,8.03,151.2,1.284,0.151,23.99,109.0731,22.51,23.57,31.72,0,111.1,13.05,23.34,113.2
"2016-06-30 01:16:00",1766961,7.944,148.5,0.924,0.175,24.08,109.0731,22.51,23.56,31.88,0,111.1,13.05,23.34,110.5
"2016-06-30 01:16:30",1766962,7.77,148.2,1.079,0.121,24.06,109.0725,22.51,23.56,31.86,0,111.1,13.05,23.34,110.2
"2016-06-30 01:17:00",1766963,7.744,148.8,1.197,0.113,24.1,109.0746,22.52,23.56,31.89,0,111.1,13.06,23.35,110.8
"2016-06-30 01:17:30",1766964,7.765,149.4,0.529,0.116,24.12,109.076,22.52,23.56,32.01,0,111.1,13.06,23.35,111.4
"2016-06-30 01:18:00",1766965,7.733,150.4,0.532,0.104,24.15,109.0831,22.54,23.57,32.2,0,111.1,13.06,23.37,112.4
"2016-06-30 01:18:30",1766966,7.611,151.7,0.72,0.095,24.19,109.0902,22.56,23.57,32.19,0,111.1,13.06,23.39,113.7
"2016-06-30 01:19:00",1766967,7.684,153.2,0.767,0.053,24.07,109.1047,22.59,23.57,32.24,0,111.1,13.06,23.43,115.2
"2016-06-30 01:19:30",1766968,7.625,155.3,0.38,0.069,24.08,109.1144,22.62,23.57,32.27,0,111.1,13.06,23.45,117.3
"2016-06-30 01:20:00",1766969,7.702,158,1.893,0.113,24.09,109.1194,22.63,23.58,32.05,0,111.1,13.06,23.46,120.0
"2016-06-30 01:20:30",1766970,7.73,158.2,1.019,0.18,24.1,109.1219,22.64,23.6,31.95,0,111.1,13.06,23.47,120.2
"2016-06-30 01:21:00",1766971,7.61,159.8,1.187,0.173,24.14,109.1262,22.65,23.6,32.03,0,111,13.06,23.48,121.8
"2016-06-30 01:21:30",1766972,7.426,161.3,0.877,0.12,24.14,109.1277,22.65,23.62,32,0,111.1,13.06,23.48,123.3
"2016-06-30 01:22:00",1766973,7.248,161.9,0.885,0.11,24.28,109.1347,22.67,23.62,31.78,0,111,13.06,23.50,123.9
"2016-06-30 01:22:30",1766974,7.246,164.4,1.266,0.147,24.16,109.154,22.72,23.63,32.12,0,111,13.06,23.55,126.4
"2016-06-30 01:23:00",1766975,7.069,164.8,1.501,0.145,24.25,109.1571,22.73,23.63,31.68,0,111.1,13.06,23.56,126.8
"2016-06-30 01:23:30",1766976,6.998,163.8,0.797,0.146,24.27,109.1645,22.75,23.64,31.48,0,111,13.06,23.58,125.8
"2016-06-30 01:24:00",1766977,6.949,165.7,0.741,0.103,24.3,109.1682,22.76,23.65,31.43,0,111,13.06,23.59,127.7
"2016-06-30 01:24:30",1766978,6.97,166.6,0.472,0.062,24.3,109.1691,22.76,23.67,31.59,0,111,13.06,23.59,128.6
"2016-06-30 01:25:00",1766979,6.747,166.6,0.79,0.093,24.37,109.1719,22.77,23.68,31.35,0,111,13.06,23.60,128.6
"2016-06-30 01:25:30",1766980,6.91,167.9,0.487,0.092,24.3,109.1731,22.77,23.69,31.33,0,111,13.06,23.60,129.9
"2016-06-30 01:26:00",1766981,7.076,167.8,0.558,0.066,24.31,109.1796,22.79,23.69,31.51,0,111,13.06,23.62,129.8
"2016-06-30 01:26:30",1766982,7.174,167.4,0.72,0.101,24.36,109.1898,22.81,23.72,31.49,0,111,13.06,23.64,129.4
"2016-06-30 01:27:00",1766983,7.124,167.4,0.554,0.073,24.36,109.2068,22.86,23.72,31.5,0,111,13.05,23.69,129.4
"2016-06-30 01:27:30",1766984,7.167,167.4,0.619,0.052,24.38,109.2105,22.87,23.74,31.71,0,111,13.05,23.70,129.4
"2016-06-30 01:28:00",1766985,7.618,166.9,0.829,0.274,24.18,109.2105,22.87,23.74,31.64,0,111,13.05,23.70,128.9
"2016-06-30 01:28:30",1766986,7.831,170.8,1.889,0.142,24,109.2105,22.87,23.76,31.07,0,111,13.05,23.70,132.8
"2016-06-30 01:29:00",1766987,8.17,170.9,2.047,0.247,24.07,109.2105,22.87,23.77,30.71,0,111,13.05,23.70,132.9
"2016-06-30 01:29:30",1766988,7.761,172.8,2.811,0.399,24.08,109.2105,22.87,23.75,30.77,0,111,13.05,23.70,134.8
"2016-06-30 01:30:00",1766989,7.411,168.7,2.262,0.255,24.09,109.2105,22.87,23.75,30.47,0,111,13.05,23.70,130.7
"2016-06-30 01:30:30",1766990,7.938,163.9,1.119,0.165,24.11,109.2027,22.85,23.77,30.68,0,111,13.06,23.68,125.9
"2016-06-30 01:31:00",1766991,7.931,166.6,1.423,0.213,24.18,109.1869,22.81,23.77,30.76,0,111,13.06,23.64,128.6
"2016-06-30 01:31:30",1766992,7.743,163.8,2.013,0.111,24.14,109.1787,22.79,23.76,30.84,0,111,13.06,23.62,125.8
"2016-06-30 01:32:00",1766993,7.584,166,2.472,0.243,24.14,109.1768,22.78,23.76,30.55,0,111,13.06,23.61,128.0
"2016-06-30 01:32:30",1766994,7.612,162.2,1.709,0.376,24.18,109.1768,22.78,23.76,30.87,0,111.1,13.06,23.61,124.2
"2016-06-30 01:33:00",1766995,7.807,159.4,2.334,0.219,24.22,109.1768,22.78,23.75,31.05,0,111.1,13.06,23.61,121.4
"2016-06-30 01:33:30",1766996,7.254,156.5,1.477,0.189,24.3,109.1768,22.78,23.74,31.42,0,111.1,13.06,23.61,118.5
"2016-06-30 01:34:00",1766997,7.501,157.2,1.596,0.172,24.2,109.1768,22.78,23.75,31.16,0,111.1,13.06,23.61,119.2
"2016-06-30 01:34:30",1766998,7.225,158.2,3.15,0.202,24.09,109.1765,22.78,23.74,30.69,0,111,13.06,23.61,120.2
"2016-06-30 01:35:00",1766999,7.679,153.7,1.595,0.3,24.22,109.1762,22.78,23.73,30.86,0,111,13.06,23.61,115.7
"2016-06-30 01:35:30",1767000,7.507,153.7,2.116,0.133,24.14,109.1748,22.77,23.71,30.85,0,111,13.06,23.61,115.7
"2016-06-30 01:36:00",1767001,7.412,152.6,2.279,0.185,24.15,109.1757,22.78,23.71,30.62,0,111.1,13.06,23.61,114.6
"2016-06-30 01:36:30",1767002,7.26,152.8,2.492,0.197,24.19,109.174,22.77,23.73,30.79,0,111,13.06,23.60,114.8
"2016-06-30 01:37:00",1767003,7.379,152.5,1.997,0.228,24.1,109.1745,22.77,23.72,30.52,0,111,13.06,23.61,114.5
"2016-06-30 01:37:30",1767004,7.328,152.2,2.226,0.201,24.11,109.1712,22.77,23.71,30.34,0,111,13.06,23.60,114.2
"2016-06-30 01:38:00",1767005,7.264,150.1,1.902,0.281,24.11,109.1712,22.77,23.72,30.31,0,111,13.06,23.60,112.1
"2016-06-30 01:38:30",1767006,7.414,154.6,3.121,0.154,24.08,109.1714,22.77,23.73,30.26,0,111,13.07,23.60,116.6
"2016-06-30 01:39:00",1767007,7.518,155.4,1.345,0.194,24.11,109.1698,22.76,23.73,30.23,0,111,13.07,23.59,117.4
"2016-06-30 01:39:30",1767008,7.309,155.2,2.65,0.195,24.17,109.1689,22.76,23.74,30.19,0,111,13.06,23.59,117.2
"2016-06-30 01:40:00",1767009,6.847,154,3.864,0.262,24.11,109.1712,22.77,23.73,30.06,0,111,13.07,23.60,116.0
"2016-06-30 01:40:30",1767010,6.823,154.8,2.294,0.182,24.11,109.1695,22.76,23.74,30.08,0,111,13.07,23.59,116.8
"2016-06-30 01:41:00",1767011,7.102,154.6,2.937,0.181,24.08,109.1692,22.76,23.72,29.99,0,111,13.07,23.59,116.6
"2016-06-30 01:41:30",1767012,6.677,156.8,1.902,0.251,24.07,109.1684,22.76,23.72,29.83,0,111,13.06,23.59,118.8
"2016-06-30 01:42:00",1767013,6.764,158.5,1.281,0.128,24.08,109.1667,22.75,23.74,29.79,0,111,13.07,23.59,120.5
"2016-06-30 01:42:30",1767014,6.459,163.2,2.308,0.243,24.11,109.1638,22.75,23.73,29.8,0,111,13.07,23.58,125.2
"2016-06-30 01:43:00",1767015,6.27,160.5,2.927,0.25,24.09,109.1661,22.75,23.73,29.75,0,111,13.06,23.58,122.5
"2016-06-30 01:43:30",1767016,6.561,161.2,3.728,0.198,24.22,109.1669,22.75,23.73,29.8,0,111,13.06,23.59,123.2
"2016-06-30 01:44:00",1767017,6.299,158.1,2.597,0.452,24.26,109.1664,22.75,23.73,30.02,0,111,13.06,23.58,120.1
"2016-06-30 01:44:30",1767018,5.759,159.5,1.992,0.238,24.24,109.1678,22.76,23.73,30.06,0,111,13.06,23.59,121.5
"2016-06-30 01:45:00",1767019,5.579,157.8,3.937,0.292,24.17,109.1672,22.76,23.73,29.88,0,111,13.06,23.59,119.8
"2016-06-30 01:45:30",1767020,5.85,157.8,2.231,0.157,24.12,109.1656,22.75,23.74,29.75,0,111,13.06,23.58,119.8
"2016-06-30 01:46:00",1767021,5.805,158.2,2.221,0.214,24.18,109.1667,22.75,23.74,29.73,0,111,13.06,23.59,120.2
"2016-06-30 01:46:30",1767022,5.878,165.1,2.137,0.234,24.09,109.1667,22.75,23.74,29.69,0,111,13.06,23.59,127.1
"2016-06-30 01:47:00",1767023,5.445,161.9,4.017,0.164,24.11,109.1673,22.76,23.74,29.65,0,111,13.06,23.59,123.9
"2016-06-30 01:47:30",1767024,5.602,157.7,2.204,0.134,24.14,109.1679,22.76,23.75,29.7,0,111.1,13.06,23.59,119.7